This is the latest recevied weather packets stored in our database for station/object EA3GKP-10. If no packets are shown the sender has not sent any weather packets the latest 10 day(s).
| Time | Temp. | Humidity | Pressure | Rain* | Wind** | Luminosity | Snow |
|---|---|---|---|---|---|---|---|
| 1788148339 | 71° F | - | - | 0 in | 0 mph | - | - |
| 1788143480 | 71° F | - | - | 0 in | 3 mph, 290° | - | - |
| 1788143181 | 71° F | - | - | 0 in | 1 mph, 285° | - | - |
| 1788142570 | 71° F | - | - | 0 in | 1 mph, 302° | - | - |
| 1788142267 | 72° F | - | - | 0 in | 3 mph, 271° | - | - |
| 1788141356 | 72° F | - | - | 0 in | 0 mph | - | - |
| 1788140749 | 73° F | - | - | 0 in | 3 mph, 302° | - | - |
| 1788140141 | 71° F | - | - | 0 in | 2 mph, 309° | - | - |
| 1788139232 | 72° F | - | - | 0 in | 2 mph, 259° | - | - |
| 1788138929 | 72° F | - | - | 0 in | 3 mph, 270° | - | - |
| 1788138320 | 71° F | - | - | 0 in | 0 mph | - | - |
| 1788138017 | 72° F | - | - | 0 in | 0 mph | - | - |
| 1788137712 | 72° F | - | - | 0 in | 0 mph | - | - |
| 1788136316 | 71° F | - | - | 0 in | 0 mph | - | - |
| 1788136190 | 71° F | - | - | 0 in | 0 mph | - | - |
| 1788135279 | 73° F | - | - | 0 in | 3 mph, 298° | - | - |
| 1788118560 | 75° F | - | - | 0 in | 7 mph, 307° | - | - |
| 1788116740 | 75° F | - | - | 0 in | 5 mph, 323° | - | - |
| 1788115827 | 77° F | - | - | 0 in | 7 mph, 278° | - | - |
| 1788114614 | 80° F | - | - | 0 in | 2 mph, 280° | - | - |
| 1788112489 | 80° F | - | - | 0 in | 4 mph, 262° | - | - |
| 1788107634 | 82° F | - | - | 0 in | 7 mph, 274° | - | - |
| 1788105816 | 82° F | - | - | 0 in | 6 mph, 335° | - | - |
| 1788103385 | 83° F | - | - | 0 in | 4 mph, 311° | - | - |
| 1788101262 | 85° F | - | - | 0 in | 4 mph, 25° | - | - |
* Rain latest hour (hover to see other rain measurements)
** Current wind speed in m/s (hover to see current wind gust speed)